Regional Weather Roundup
Issued by NWS

Home | Current Version | Previous Version | Graphics & Text | Print | Product List | Glossary On
Versions: 1 2 3 4 5 6 7 8 9 10 11 12 13 14 15 16 17 18 19 20 21 22 23 24 25 26 27 28
000
ASUS45 KCYS 192310
RWRWY

WYOMING REGIONAL WEATHER ROUNDUP
NATIONAL WEATHER SERVICE CHEYENNE WY
400 PM MST FRI JAN 19 2018

NOTE:  "FAIR" INDICATES FEW OR NO CLOUDS BELOW 12,000 FEET
WITH NO SIGNIFICANT WEATHER AND/OR OBSTRUCTIONS TO VISIBILITY.

WYZ001-200000-
YELLOWSTONE NATIONAL PARK

CITY           SKY/WX    TMP DP  RH WIND       PRES   REMARKS
LK YELLOWSTONE   N/A     25  22  88 VRB5      29.74S WCI  19
W YELLOWSTONE  NOT AVBL

$$
WYZ002>013-054>058-071-098>099-200000-
NORTHERN WYOMING

CITY           SKY/WX    TMP DP  RH WIND       PRES   REMARKS
JACKSON        FLURRIES  32  26  78 SW7       29.78R WCI  26
CODY           FAIR      38  32  79 E6        29.69S WCI  33
GREYBULL       MOCLDY    38  31  76 NW5       29.69R WCI  34
WORLAND        CLOUDY    38  32  79 CALM      29.69R
SHERIDAN       CLOUDY    37  34  89 W5        29.68R WCI  33
BUFFALO        MOCLDY    38  30  73 SE5       29.69R WCI  34
GILLETTE       FAIR      43  32  65 CALM      29.69R
HULETT         FAIR      41  32  70 NW3       29.69S
NEWCASTLE      FAIR      36  30  80 W6        29.68S WCI  31

$$
WYZ014>020-022>026-101>103-200000-
CENTRAL WYOMING

CITY           SKY/WX    TMP DP  RH WIND       PRES   REMARKS
BIG PINEY      CLOUDY    34  28  79 N9        29.77R WCI  27
PINEDALE       CLOUDY    32  28  86 NW9       29.77S WCI  24
DUBOIS         CLOUDY    32  23  69 W17G24    29.69F WCI  21
LANDER         FAIR      42  29  59 N9        29.65R
RIVERTON       CLOUDY    43  27  53 NW14      29.66R
CASPER         FAIR      49  23  36 SW20      29.66R
DOUGLAS        FAIR      56  27  32 SW13G23   29.67R

$$
WYZ021-027>030-104>119-200000-
SOUTHERN WYOMING

CITY           SKY/WX    TMP DP  RH WIND       PRES   REMARKS
EVANSTON       CLOUDY    37  32  82 W18       29.75F WCI  27
FORT BRIDGER   FAIR      42  30  63 W20G28    29.77F
ROCK SPRINGS   CLOUDY    46  25  43 W21G28    29.75R
DIXON            N/A     49  19  30 SW14G25   29.84S
RAWLINS        FAIR      46  21  37 SW18G32   29.77R
SARATOGA       FAIR      45  19  36 SW24G36   29.78R
LARAMIE        FAIR      51  15  23 W18G36    29.77R
CHEYENNE       FAIR      59  16  18 W31G41    29.74R
TORRINGTON     FAIR      47  32  56 CALM      29.66R

$$




USA.gov is the U.S. government's official web portal to all federal, state and local government web resources and services.